Home   Weather   Lódz   Past weeks

Flag for Poland Past Weather in Lódz, Poland — Yesterday and Last 2 Weeks

Now
47 °F

Scattered clouds.


Feels Like: 44 °F
Forecast: 38 / 55 °F
Wind: 6 mph from Northeast

Location: Lodz

Current Time: Apr 30, 2017 at 8:40:46 pm

Latest Report: Apr 30, 2017 at 7:00 pm


Visibility: 13 mi

Pressure: 30.19 "Hg

Humidity: 59%

Dew Point: 33 °F

Location of LódzLocation

Past Weather in Lódz — Graph

°F

Lódz Temperature Yesterday

Maximum temperature yesterday: 52 °F (at 3:00 pm)
Minimum temperature yesterday: 38 °F (at 4:00 am)
Average temperature yesterday: 44 °F

High & Low Weather Summary for the Past Weeks

 TemperatureHumidityPressure
High61 °F (Apr 25, 4:00 pm)98% (Apr 30, 5:00 am)30.47 "Hg (Apr 30, 5:00 am)
Low25 °F (Apr 21, 3:00 am)41% (Apr 20, 5:00 pm)29.62 "Hg (Apr 25, 1:00 pm)
Average41 °F74%30.02 "Hg
* Reported Apr 15 7:00 pm — Apr 30 7:00 pm, Lódz, Weather by CustomWeather, © 2017

Note: Actual official high and low records may vary slightly from our data, if they occured in-between our weather recording intervals... More about our weather records

Advertising

Lódz Weather History for the Previous 24 Hours

Scroll right to see more
 ConditionsComfort  
Time TempWeatherWind HumidityBarometerVisibility
7:00 pm
Sun, Apr 30
47 °FScattered clouds.6 mph59%30.19 "Hg12 mi
6:00 pm49 °FScattered clouds.5 mph58%30.19 "Hg12 mi
5:00 pm49 °FScattered clouds.5 mph55%30.20 "Hg12 mi
4:00 pm47 °FPartly sunny.6 mph64%30.22 "Hg12 mi
3:00 pm46 °FOvercast.3 mph64%30.22 "Hg12 mi
2:00 pm45 °FPartly sunny.2 mph67%30.23 "Hg12 mi
1:00 pm43 °FOvercast.5 mph74%30.24 "Hg12 mi
12:00 pm43 °FOvercast.5 mph74%30.23 "Hg12 mi
11:00 am42 °FOvercast.5 mph77%30.23 "Hg12 mi
10:00 am41 °FOvercast.3 mph85%30.22 "Hg12 mi
9:00 am39 °FFog.3 mph94%30.22 "Hg4 mi
8:00 am37 °FFog.3 mph98%30.21 "Hg2 mi
7:00 am37 °FFog.2 mph98%30.19 "Hg3 mi
6:00 am33 °FFog.N/A96%30.18 "Hg3 mi
5:00 am35 °FFog.2 mph98%30.16 "Hg4 mi
4:00 am36 °FFog.No wind95%30.15 "Hg4 mi
3:00 am39 °FFog.2 mph95%30.13 "Hg6 mi
2:00 am40 °FFog.1 mph96%30.11 "Hg4 mi
1:00 am41 °FFog.N/A96%30.11 "Hg4 mi
12:00 am39 °FFog.1 mph97%30.10 "Hg1 mi
11:00 pm
Sat, Apr 29
42 °FPassing clouds.1 mph96%30.09 "Hg2 mi
10:00 pm42 °FLight rain. Overcast.1 mph96%30.09 "Hg2 mi
9:00 pm42 °FOvercast.1 mph96%30.08 "Hg6 mi
8:00 pm43 °FOvercast.1 mph93%30.06 "Hg7 mi
Weather by CustomWeather, © 2017

See weather overviewHow to use our weather pages